Regional Weather Roundup
Issued by NWS Upton, NY

Current Version | Previous Version | Graphics & Text | Print | Product List | Glossary Off
Versions: 1 2 3 4 5 6 7 8 9 10 11 12 13 14 15 16 17 18 19 20 21 22 23 24 25 26 27 28 29 30 31 32 33 34 35 36 37 38 39 40 41 42 43 44 45 46 47 48 49 50

000
ASUS41 KOKX 271304
RWROKX

REGIONAL WEATHER ROUNDUP
NATIONAL WEATHER SERVICE NEW YORK NY
900 AM EDT THU AUG 27 2015

NOTE: "FAIR" INDICATES FEW OR NO CLOUDS BELOW 12,000 FEET WITH NO
SIGNIFICANT WEATHER AND/OR OBSTRUCTIONS TO VISIBILITY.

NYZ071-072-176-178-NJZ106-104-271400-
NEW YORK CITY METRO AREA


CITY           SKY/WX    TMP DP  RH WIND       PRES   REMARKS
CENTRAL PARK   SUNNY     71  53  52 CALM      30.09R
LAGUARDIA APRT MOSUNNY   71  55  56 NW12      30.06R
KENNEDY INTL   MOSUNNY   74  54  49 N14       30.06S
NEWARK/LIBERTY MOSUNNY   72  55  55 NW16      30.06S
BRNX BOT. GARD   N/A     70  54  56 W9        30.06S
TETERBORO      MOSUNNY   72  53  51 NW10      30.06R
$$

NYZ177-179-078>081-271400-
LONG ISLAND NEW YORK

CITY           SKY/WX    TMP DP  RH WIND       PRES   REMARKS
FARMINGDALE    SUNNY     73  57  57 NW7       30.06R
ISLIP          MOSUNNY   72  59  63 VRB5      30.04R
SHIRLEY        SUNNY     73  58  59 N9        30.05S
WESTHAMPTON    SUNNY     74  57  55 N8        30.06R
MONTAUK POINT    N/A     71  56  58 NW8       30.04S
$$

NYZ052-065-067-271400-
HUDSON VALLEY

CITY           SKY/WX    TMP DP  RH WIND       PRES   REMARKS
WHITE PLAINS   SUNNY     70  56  61 NW7       30.05S
NEWBURGH       SUNNY     68  59  73 W9        30.08R
MONTGOMERY     SUNNY     68  56  65 W9        30.07R
POUGHKEEPSIE   SUNNY     67  58  72 CALM      30.06R
ALBANY         PTSUNNY   67  56  67 W9        30.06R
$$

NJZ001-105-106-008-010-013-015-019>022-104-271400-
NEW JERSEY

CITY           SKY/WX    TMP DP  RH WIND       PRES   REMARKS
NEWARK/LIBERTY MOSUNNY   72  55  55 NW16      30.06S
TETERBORO      MOSUNNY   72  53  51 NW10      30.06R
CALDWELL       SUNNY     69  55  60 NW8       30.08R
MORRISTOWN     MOSUNNY   70  59  68 N10       30.08S
SOMERVILLE     SUNNY     69  56  62 NW10      30.07R
SUSSEX         SUNNY     67  55  65 NW7       30.09S
ANDOVER          N/A     66  57  72 N6        30.10S
TRENTON        SUNNY     69  57  65 N7        30.08R
MILLVILLE      SUNNY     69  58  67 VRB7      30.09R
ATLANTIC CITY  SUNNY     70  56  61 N9        30.08S
WRIGHTSTOWN    SUNNY     69  58  68 N8        30.06R
TOMS RIVER     SUNNY     68  57  68 N7        30.08S
BELMAR         SUNNY     70  54  56 NW9       30.07S
$$

PAZ047>061-062-071-271400-
EASTERN PENNSYLVANIA

CITY           SKY/WX    TMP DP  RH WIND       PRES   REMARKS
PHILADELPHIA   MOSUNNY   71  54  54 N13       30.10R
ALLENTOWN      SUNNY     67  57  70 NW3       30.11R
SCRANTON       PTSUNNY   64  54  69 W6        30.13R
$$

CTZ002-004>006-009-010-012-RIZ004-006-007-MAZ004-011-015-271400-
SOUTHERN NEW ENGLAND
 IN CT

CITY           SKY/WX    TMP DP  RH WIND       PRES   REMARKS
BRADLEY INTL   MOSUNNY   69  56  62 VRB3      30.03R
HARTFORD       SUNNY     70  57  63 N5        30.04R
DANBURY        SUNNY     68  55  63 VRB3      30.07S
WTRBRY/OXFORD  NOT AVBL
BRIDGEPORT     SUNNY     70  57  63 N8        30.05R
MERIDEN        SUNNY     71  56  58 N6        30.04S
NEW HAVEN      SUNNY     69  56  62 N7        30.05R
CHESTER        NOT AVBL
GROTON         SUNNY     71  57  61 NW14G22   30.02R
WILLIMANTIC    SUNNY     67  58  72 CALM      30.04R

 IN RI

CITY           SKY/WX    TMP DP  RH WIND       PRES   REMARKS
PROVIDENCE     MOSUNNY   71  54  54 NW12      30.02R
BLOCK ISLAND   SUNNY     70  57  64 NW8       30.02S
WESTERLY       SUNNY     70  55  59 NW7       30.02S

 IN MA

CITY           SKY/WX    TMP DP  RH WIND       PRES   REMARKS
BOSTON         MOSUNNY   73  53  49 NW13      29.99R
WORCESTER      SUNNY     64  54  69 W15       30.03R
WESTFIELD      SUNNY     68  55  63 VRB5      30.03S
PROVINCETOWN   SUNNY     70  55  60 NW12      29.98S
NANTUCKET      SUNNY     75  60  59 NW12      29.99R
$$

ANZ330-335-338-340-345-350-353-355-271400-
COASTAL MARINE OBSERVATIONS


STATION/POSITION TIME  SKY/WX   TEMP    WIND        PRES    VSBY  WAVE
                                AIR SEA DIR/SP/G                  HT/PER
                 (UTC)          (F)     (DEG/KT/KT) (MB)    (MI)  (FT/S)
NY HARB ENTRANCE 1150            70 76  310/ 10/ 12 1017.2          2/ 9
4S FIRE IS       NOT AVBL
20S FIRE ISLAND  1150            71 74  340/  8/ 10 1017.0          2/10
GREAT SOUTH BAY  NOT AVBL
23SW MTP         1250            69 72  340/ 10/ 12 1016.7          2/10
HUDSON CANYON    NOT AVBL
KINGS POINT      1200            69 72  360/  6/ 10 1017.0
EXECUTION ROCKS  1200            68     290/  4/  8   N/A
CENTRAL LI SOUND NOT AVBL
EASTERN LI SOUND 1200            72 71  330/  8/ 12   N/A
ROBBINS REEF     1200            69     330/ 11/ 16 1016.7
$$


>>>>>>>>>>>>>>>>>>>>>>>>>>>> KEY <<<<<<<<<<<<<<<<<<<<<<<<<<<
>                                                          <
>     SKY/WX - SKY CONDITION/PRESENT WEATHER               <
>     TMP    - TEMPERATURE IN FAHRENHEIT                   <
>     DP     - DEWPOINT IN FAHRENHEIT                      <
>     RH     - RELATIVE HUMIDITY IN PERCENT                <
>     WIND   - DIRECTION AND SPEED IN MPH                  <
>     PRES   - MEAN SEA LEVEL PRESSURE IN INCHES OF HG     <
>     WCI    - WIND CHILL INDEX                            <
>     VSB    - VISIBILITY IN MILES                         <
>     HX     - HEAT INDEX                                  <
>     TC     - TEMPERATURE IN CELSIUS                      <
>     VRB    - VARIABLE WIND DIRECTION                     <
>                                                          <
>>>>>>>>>>>>>>>>>>>>>>>>>>>> KEY <<<<<<<<<<<<<<<<<<<<<<<<<<<





USA.gov is the U.S. government's official web portal to all federal, state and local government web resources and services.